Location: Unspecified
(0.0000°N, 0.0000°E)
Time: 01:47:32
(UTC+00:00)

AO-85 - Visible Passes

Search period start: 26 April 2018 00:00
Search period end: 06 May 2018 00:00
Orbit: 501 x 784 km, 64.8° (Epoch: 19 April)

Date Brightness Start Highest point End Pass type
(mag) Time Alt. Az. Time Alt. Az. Time Alt. Az.
26 Apr ? 20:41:32 10° NNW 20:41:36 10° NNW 20:41:36 10° NNW visible
27 Apr ? 19:27:59 10° NNE 19:29:04 13° NE 19:29:04 13° NE visible
28 Apr ? 19:51:15 10° N 19:54:17 32° N 19:54:17 32° N visible
29 Apr ? 18:40:10 10° ENE 18:41:00 10° ENE 18:41:50 10° ENE visible
29 Apr ? 20:16:07 10° NW 20:19:35 37° WNW 20:19:35 37° WNW visible
30 Apr ? 19:01:16 10° N 19:05:59 31° ENE 19:07:17 28° E visible
30 Apr ? 20:42:40 10° WNW 20:44:58 17° W 20:44:58 17° W visible
01 May ? 19:25:30 10° NNW 19:30:53 87° WSW 19:32:43 42° SSE visible
02 May ? 19:51:09 10° NW 19:55:44 29° WSW 19:58:12 20° SSW visible
03 May ? 18:35:09 10° N 18:40:25 56° ENE 18:45:29 10° SE visible
04 May ? 19:00:08 10° NW 19:05:17 48° WSW 19:10:13 10° S visible
05 May ? 19:26:54 10° WNW 19:30:06 16° WSW 19:33:13 10° SSW visible
